�������l�o���
Date,Time,MP-1(��Sv/h),MP-2(��Sv/h),MP-3(��Sv/h),MP-4(��Sv/h),MP-5(��Sv/h),MP-6(��Sv/h),MP-7(��Sv/h),����,����(m/s),���J
2017/07/13,00:00,0.364,0.227,0.378,0.357,0.332,0.184,0.109,��,4.2,��
2017/07/13,00:10,0.369,0.225,0.380,0.355,0.331,0.184,0.109,��쐼,4.4,��
2017/07/13,00:20,0.365,0.229,0.383,0.354,0.329,0.184,0.108,��쐼,4.4,��
2017/07/13,00:30,0.363,0.227,0.380,0.352,0.327,0.184,0.108,��쐼,5.0,��
2017/07/13,00:40,0.368,0.226,0.378,0.357,0.333,0.184,0.109,��쐼,5.0,��
2017/07/13,00:50,0.366,0.228,0.380,0.354,0.331,0.184,0.108,��쐼,5.1,��
2017/07/13,01:00,0.364,0.228,0.383,0.352,0.329,0.184,0.108,��쐼,4.8,��
2017/07/13,01:10,0.369,0.227,0.381,0.353,0.329,0.184,0.109,�쐼,3.6,��
2017/07/13,01:20,0.367,0.229,0.377,0.356,0.333,0.184,0.109,�쐼,1.9,��
2017/07/13,01:30,0.365,0.229,0.382,0.355,0.331,0.183,0.109,�쐼,1.0,��
2017/07/13,01:40,0.366,0.227,0.383,0.354,0.330,0.186,0.110,��,1.0,��
2017/07/13,01:50,0.369,0.227,0.381,0.352,0.327,0.186,0.110,-,CALM,��
2017/07/13,02:00,0.366,0.228,0.378,0.358,0.330,0.183,0.109,-,CALM,��
2017/07/13,02:10,0.364,0.229,0.382,0.356,0.332,0.185,0.110,-,CALM,��
2017/07/13,02:20,0.369,0.226,0.382,0.353,0.330,0.185,0.109,-,CALM,��
2017/07/13,02:30,0.368,0.229,0.380,0.351,0.327,0.185,0.108,-,CALM,��
2017/07/13,02:40,0.364,0.229,0.378,0.356,0.330,0.184,0.108,-,CALM,�L
2017/07/13,02:50,0.366,0.227,0.383,0.356,0.332,0.185,0.110,��,0.8,��
2017/07/13,03:00,0.368,0.229,0.383,0.352,0.330,0.185,0.108,��쓌,1.3,��
2017/07/13,03:10,0.366,0.230,0.379,0.354,0.329,0.184,0.109,��쓌,1.2,��
2017/07/13,03:20,0.364,0.227,0.380,0.358,0.334,0.184,0.109,��,1.0,��
2017/07/13,03:30,0.370,0.226,0.384,0.356,0.333,0.184,0.109,��,2.6,��
2017/07/13,03:40,0.367,0.229,0.381,0.352,0.331,0.185,0.109,��,4.7,��
2017/07/13,03:50,0.365,0.229,0.379,0.355,0.331,0.184,0.109,��,5.0,��
2017/07/13,04:00,0.368,0.226,0.383,0.357,0.334,0.185,0.109,��쐼,6.1,��
2017/07/13,04:10,0.368,0.229,0.384,0.353,0.332,0.186,0.110,��쐼,6.3,��
2017/07/13,04:20,0.364,0.229,0.380,0.353,0.330,0.184,0.109,��쐼,3.9,��
2017/07/13,04:30,0.367,0.227,0.377,0.357,0.331,0.186,0.109,��쐼,3.9,��
2017/07/13,04:40,0.370,0.230,0.384,0.356,0.333,0.186,0.109,��쐼,3.4,��
2017/07/13,04:50,0.366,0.229,0.383,0.352,0.330,0.185,0.111,�쐼,1.9,��
2017/07/13,05:00,0.365,0.227,0.379,0.353,0.327,0.184,0.109,�쐼,1.6,��
2017/07/13,05:10,0.369,0.229,0.380,0.358,0.333,0.185,0.109,��쐼,1.5,��
2017/07/13,05:20,0.366,0.229,0.383,0.354,0.332,0.185,0.109,�쐼,1.2,��
2017/07/13,05:30,0.365,0.227,0.382,0.353,0.330,0.185,0.109,�쐼,1.7,��
2017/07/13,05:40,0.370,0.229,0.379,0.353,0.329,0.185,0.110,��,0.9,��
2017/07/13,05:50,0.368,0.228,0.383,0.357,0.334,0.185,0.110,�k��,1.0,��
2017/07/13,06:00,0.364,0.227,0.383,0.354,0.332,0.185,0.110,�k��,1.7,��
2017/07/13,06:10,0.369,0.226,0.380,0.351,0.330,0.186,0.110,�k�k��,2.5,��
2017/07/13,06:20,0.368,0.230,0.380,0.356,0.328,0.185,0.110,�k,4.2,��
2017/07/13,06:30,0.366,0.229,0.385,0.358,0.329,0.184,0.109,�k,5.8,��
2017/07/13,06:40,0.367,0.230,0.384,0.356,0.328,0.186,0.109,�k,6.6,��
2017/07/13,06:50,0.370,0.228,0.378,0.353,0.333,0.185,0.107,�k,5.6,��
2017/07/13,07:00,0.366,0.227,0.378,0.350,0.335,0.184,0.108,�k,5.1,��
2017/07/13,07:10,0.364,0.227,0.377,0.350,0.334,0.185,0.109,�k,5.3,��
2017/07/13,07:20,0.365,0.227,0.377,0.351,0.330,0.184,0.109,�k,5.1,��
2017/07/13,07:30,0.369,0.226,0.378,0.352,0.330,0.183,0.108,�k,6.4,��
2017/07/13,07:40,0.367,0.227,0.377,0.351,0.329,0.183,0.108,�k,6.9,�L
2017/07/13,07:50,0.365,0.226,0.378,0.351,0.328,0.185,0.107,�k,7.5,��
2017/07/13,08:00,0.363,0.226,0.378,0.352,0.328,0.185,0.107,�k,7.8,��
2017/07/13,08:10,0.362,0.225,0.378,0.352,0.327,0.184,0.108,�k,7.4,��
2017/07/13,08:20,0.363,0.227,0.378,0.354,0.327,0.182,0.107,�k�k��,7.9,��
2017/07/13,08:30,0.368,0.227,0.378,0.353,0.328,0.182,0.110,�k,8.1,��
2017/07/13,08:40,0.368,0.226,0.379,0.353,0.330,0.183,0.112,�k,9.9,��
2017/07/13,08:50,0.366,0.227,0.378,0.353,0.329,0.183,0.112,�k,9.5,��
2017/07/13,09:00,0.365,0.227,0.379,0.354,0.331,0.184,0.112,�k,9.2,��
2017/07/13,09:10,0.365,0.228,0.379,0.355,0.330,0.183,0.111,�k,8.9,��
2017/07/13,09:20,0.363,0.227,0.382,0.355,0.331,0.184,0.112,�k�k��,8.4,��
2017/07/13,09:30,0.363,0.227,0.379,0.354,0.331,0.184,0.112,�k�k��,6.9,��
2017/07/13,09:40,0.364,0.227,0.377,0.354,0.330,0.184,0.112,�k�k��,7.0,��
2017/07/13,09:50,0.361,0.227,0.378,0.352,0.329,0.185,0.111,�k�k��,7.8,��
2017/07/13,10:00,0.365,0.226,0.378,0.352,0.329,0.184,0.110,�k�k��,6.9,��
2017/07/13,10:10,0.368,0.226,0.378,0.354,0.330,0.184,0.111,�k�k��,6.7,��
2017/07/13,10:20,0.368,0.225,0.380,0.352,0.329,0.183,0.111,�k�k��,5.8,��
2017/07/13,10:30,0.364,0.227,0.378,0.351,0.328,0.184,0.111,�k��,5.7,�L
2017/07/13,10:40,0.362,0.226,0.382,0.352,0.327,0.183,0.110,�k��,4.2,�L
2017/07/13,10:50,0.369,0.229,0.384,0.353,0.331,0.186,0.112,�k��,4.1,�L
2017/07/13,11:00,0.369,0.229,0.383,0.356,0.333,0.185,0.112,�k�k��,3.3,��
2017/07/13,11:10,0.368,0.227,0.381,0.355,0.332,0.185,0.113,�k��,2.7,��
2017/07/13,11:20,0.367,0.227,0.379,0.355,0.329,0.185,0.112,�k�k��,2.2,��
2017/07/13,11:30,0.364,0.227,0.378,0.354,0.328,0.184,0.111,�k�k��,1.4,��
2017/07/13,11:40,0.363,0.227,0.382,0.351,0.329,0.184,0.111,�k,0.8,��
2017/07/13,11:50,0.363,0.225,0.384,0.352,0.329,0.183,0.112,-,CALM,��
2017/07/13,12:00,0.363,0.226,0.383,0.350,0.330,0.184,0.112,��,0.7,��
2017/07/13,12:10,0.363,0.227,0.380,0.353,0.330,0.184,0.111,��쐼,0.8,��
2017/07/13,12:20,0.364,0.227,0.379,0.354,0.331,0.185,0.112,��쓌,1.0,��
2017/07/13,12:30,0.365,0.228,0.380,0.354,0.330,0.183,0.112,�쓌,1.2,��
2017/07/13,12:40,0.366,0.228,0.380,0.353,0.329,0.184,0.113,-,CALM,��
2017/07/13,12:50,0.366,0.228,0.380,0.355,0.328,0.184,0.111,��쓌,1.4,��
2017/07/13,13:00,0.365,0.227,0.380,0.354,0.329,0.185,0.112,��쓌,1.9,��
2017/07/13,13:10,0.367,0.227,0.382,0.354,0.329,0.184,0.111,��,2.8,��
2017/07/13,13:20,0.365,0.228,0.381,0.353,0.331,0.185,0.112,��쓌,2.3,��
2017/07/13,13:30,0.366,0.228,0.380,0.355,0.331,0.185,0.114,��,0.9,��
2017/07/13,13:40,0.366,0.228,0.380,0.355,0.330,0.186,0.113,-,CALM,��
2017/07/13,13:50,0.366,0.228,0.381,0.354,0.329,0.184,0.113,�쓌,1.3,��
2017/07/13,14:00,0.365,0.228,0.381,0.354,0.330,0.185,0.112,��쓌,0.7,��
2017/07/13,14:10,0.365,0.227,0.379,0.353,0.330,0.185,0.111,��쓌,0.9,��
2017/07/13,14:20,0.365,0.227,0.380,0.353,0.331,0.184,0.111,��쓌,2.0,��
2017/07/13,14:30,0.363,0.226,0.379,0.353,0.330,0.183,0.110,��,1.3,��
2017/07/13,14:40,0.367,0.226,0.376,0.351,0.328,0.183,0.110,��쓌,1.6,��
2017/07/13,14:50,0.369,0.225,0.378,0.351,0.327,0.183,0.111,��,2.5,��
2017/07/13,15:00,0.368,0.225,0.384,0.356,0.324,0.183,0.110,��,2.5,��
2017/07/13,15:10,0.365,0.226,0.382,0.356,0.327,0.185,0.111,��쓌,1.7,��
2017/07/13,15:20,0.365,0.227,0.380,0.355,0.334,0.185,0.110,��,2.1,�L
2017/07/13,15:30,0.367,0.228,0.379,0.354,0.334,0.185,0.110,��쐼,1.5,�L
2017/07/13,15:40,0.371,0.227,0.381,0.353,0.331,0.186,0.109,��쐼,2.8,�L
2017/07/13,15:50,0.370,0.229,0.387,0.360,0.330,0.186,0.110,��쐼,2.5,�L
2017/07/13,16:00,0.367,0.233,0.384,0.360,0.332,0.187,0.112,��쐼,2.2,�L
2017/07/13,16:10,0.370,0.230,0.381,0.355,0.334,0.187,0.112,�쐼,3.6,�L
2017/07/13,16:20,0.370,0.229,0.383,0.355,0.331,0.187,0.111,��쐼,4.3,�L
2017/07/13,16:30,0.367,0.233,0.384,0.358,0.330,0.187,0.113,��쐼,4.3,�L
2017/07/13,16:40,0.366,0.230,0.380,0.355,0.333,0.188,0.113,��,4.7,�L
2017/07/13,16:50,0.370,0.229,0.381,0.352,0.332,0.188,0.112,��쐼,3.9,�L
2017/07/13,17:00,0.367,0.232,0.384,0.358,0.331,0.188,0.113,��쐼,3.2,�L
2017/07/13,17:10,0.366,0.231,0.382,0.358,0.332,0.189,0.115,��,3.6,�L
2017/07/13,17:20,0.370,0.230,0.378,0.354,0.334,0.189,0.115,���k��,10.4,�L
2017/07/13,17:30,0.371,0.233,0.384,0.355,0.331,0.190,0.117,��쐼,2.8,�L
2017/07/13,17:40,0.366,0.234,0.382,0.357,0.331,0.192,0.117,��쐼,3.9,�L
2017/07/13,17:50,0.370,0.232,0.378,0.355,0.333,0.191,0.117,��,4.6,�L
2017/07/13,18:00,0.372,0.233,0.382,0.352,0.332,0.191,0.117,��쐼,4.7,�L
2017/07/13,18:10,0.367,0.234,0.383,0.358,0.329,0.193,0.117,��,5.5,�L
2017/07/13,18:20,0.369,0.232,0.378,0.354,0.335,0.192,0.118,��,6.9,�L
2017/07/13,18:30,0.370,0.231,0.379,0.351,0.332,0.190,0.117,��,6.7,�L
2017/07/13,18:40,0.366,0.233,0.380,0.356,0.328,0.189,0.116,��,5.9,�L
2017/07/13,18:50,0.365,0.229,0.376,0.352,0.333,0.189,0.115,��,6.5,��
2017/07/13,19:00,0.367,0.228,0.374,0.348,0.330,0.188,0.114,��,4.6,��
2017/07/13,19:10,0.364,0.228,0.377,0.350,0.326,0.185,0.112,��쐼,4.6,��
2017/07/13,19:20,0.359,0.225,0.375,0.350,0.326,0.185,0.110,��쐼,4.5,��
2017/07/13,19:30,0.364,0.225,0.371,0.346,0.328,0.185,0.111,��쐼,4.7,��
2017/07/13,19:40,0.362,0.226,0.374,0.347,0.324,0.183,0.110,��쐼,3.4,��
2017/07/13,19:50,0.360,0.223,0.374,0.348,0.325,0.183,0.109,��쐼,3.4,��
2017/07/13,20:00,0.361,0.222,0.370,0.346,0.328,0.182,0.109,��쐼,3.6,��
2017/07/13,20:10,0.362,0.225,0.371,0.343,0.325,0.180,0.108,��쐼,3.1,��
2017/07/13,20:20,0.356,0.223,0.373,0.347,0.323,0.182,0.108,��쐼,4.2,��
2017/07/13,20:30,0.359,0.221,0.371,0.343,0.324,0.181,0.109,��쐼,4.5,��
2017/07/13,20:40,0.360,0.223,0.369,0.343,0.326,0.180,0.107,�쐼,4.5,��
2017/07/13,20:50,0.357,0.223,0.373,0.343,0.324,0.181,0.107,��쐼,4.2,��
2017/07/13,21:00,0.359,0.220,0.371,0.348,0.321,0.182,0.107,��쐼,5.0,��
2017/07/13,21:10,0.361,0.223,0.368,0.344,0.326,0.180,0.107,��쐼,4.4,��
2017/07/13,21:20,0.356,0.221,0.372,0.343,0.323,0.180,0.107,��쐼,4.7,��
2017/07/13,21:30,0.357,0.221,0.371,0.347,0.321,0.181,0.107,��쐼,5.2,��
2017/07/13,21:40,0.360,0.222,0.367,0.345,0.324,0.180,0.107,��쐼,4.9,��
2017/07/13,21:50,0.358,0.222,0.368,0.343,0.326,0.178,0.106,��쐼,4.7,��
2017/07/13,22:00,0.356,0.220,0.372,0.342,0.323,0.180,0.107,��쐼,5.0,��
2017/07/13,22:10,0.363,0.222,0.370,0.345,0.321,0.180,0.107,��쐼,5.3,��
2017/07/13,22:20,0.360,0.222,0.367,0.343,0.328,0.179,0.106,��쐼,5.4,��
2017/07/13,22:30,0.355,0.220,0.371,0.342,0.326,0.180,0.107,��쐼,5.0,��
2017/07/13,22:40,0.359,0.223,0.371,0.346,0.321,0.180,0.107,��쐼,4.8,��
2017/07/13,22:50,0.361,0.223,0.368,0.347,0.324,0.180,0.106,��쐼,4.5,��
2017/07/13,23:00,0.357,0.220,0.368,0.342,0.326,0.178,0.106,��쐼,4.8,��
2017/07/13,23:10,0.359,0.222,0.372,0.343,0.323,0.180,0.107,��쐼,5.0,��
2017/07/13,23:20,0.361,0.222,0.370,0.346,0.321,0.180,0.106,��쐼,5.4,��
2017/07/13,23:30,0.357,0.221,0.367,0.343,0.325,0.180,0.107,��쐼,5.7,��
2017/07/13,23:40,0.357,0.222,0.372,0.342,0.324,0.180,0.106,��쐼,6.1,��
2017/07/13,23:50,0.360,0.222,0.370,0.347,0.322,0.181,0.107,��쐼,6.3,��
